Погода в Клуанге

Малайзия     2°02′10″N   103°17′30″E
темп.,
°C
ветер,
м/с
пор.,
м/с
влажн.,
%
обл.,
%
осадки,
мм/ч
давл.,
гПа
погр.,
м
30 июня, чт
чт3023:00+25ю118363 0.0 100814
02:00+24ю1193100 1.1 100817
05:00+24юз238784 0.0 100771
08:00+25юз149194 0.5 1008150
11:00+29юз4665100 0.0 10091093
14:00+28ююз3569100 0.0 1007873
17:00+28юз2671100 0.0 10051009
20:00+25ююв258187 0.0 1007125
1 июля, пт
пт123:00+24ююв1285100 0.0 100879
02:00+24ююв1187100 0.0 100816
05:00+24ю019089 0.0 100712
08:00+24юз1189100 0.0 100854
11:00+29ююз3466100 0.0 10091025
14:00+31ююз3454100 0.0 10061477
17:00+30ююз3363100 0.0 1005950
20:00+25ююв118099 0.0 100711
2 июля, сб
сб223:00+24вюв1189100 0.0 100915
02:00+24вюв1190100 0.0 100812
05:00+24юв1190100 0.0 100711
08:00+24вюв1188100 0.0 100842
11:00+29ю3569100 0.0 10081053
14:00+32ююз445584 0.1 10061698
17:00+31ююз3460100 0.0 10041267
20:00+26ююв1178100 0.0 100612
3 июля, вс
вс323:00+25юв2286100 0.0 100838
02:00+24вюв1180100 0.0 100712
05:00+23ююв1181100 0.0 100611
08:00+24юв1183100 0.0 100763
11:00+31ююз356281 0.0 10081268
14:00+33ююз445292 0.0 10061756
17:00+31ююз34565 0.0 10041350
20:00+27ю22752 0.0 100513
4 июля, пн
пн423:00+25юв11855 0.0 100625
02:00+24юв118915 0.0 100516
05:00+24юв1193100 0.0 100512
08:00+25ю0089100 0.0 100757
11:00+31ююз246696 0.0 10071206
14:00+33ююз435019 0.1 10052011
17:00+32ююз335524 0.0 10041347
20:00+27ююв117217 0.0 100511